Tracking 19709 objects as of 18-Jun-2019
HD Live streaming from Space Station
objects crossing your sky now

TITAN 3C TRANSTAGE DEB

Track TITAN 3C TRANSTAGE DEB now!


NORAD ID: 5992
Int'l Code: 1965-108S
Perigee: 1,041.1 km
Apogee: 30,202.3 km
Inclination: 27.1 °
Period: 541.0 minutes
Semi major axis: 21992 km
RCS: 0.0547 m2 (small)
Launch date: December 21, 1965
Source: United States (US)
Launch site: AIR FORCE EASTERN TEST RANGE (AFETR)

Note: This is SATELLITE DEBRIS
aabbcc
Your satellite tracking list
Your tracking list is empty




NASA's NSSDC Master Catalog

Two Line Element Set (TLE):
1  5992U 65108S   18205.85249471 +.00000201 +00000-0 +20213-1 0  9993
2  5992 027.0795 081.0621 6629737 156.9930 257.5250 02.66185885144417
Source of the keplerian elements: AFSPC